Regional Weather Roundup
Issued by NWS Glasgow, MT

Home | Current Version | Previous Version | Text Only | Print | Product List | Glossary On
Versions: 1 2 3 4 5 6 7 8 9 10 11 12 13 14 15 16 17 18 19 20 21 22 23 24 25 26 27 28 29 30 31 32 33 34 35 36 37 38 39 40 41 42 43 44 45 46 47 48 49 50
000
ASUS45 KGGW 260315
RWRGGW
HOURLY REGIONAL WEATHER ROUNDUP FOR NORTHEAST MONTANA
NATIONAL WEATHER SERVICE GLASGOW MONTANA
900 PM MDT TUE JUL 25 2017

NOTE: "FAIR" INDICATES FEW OR NO CLOUDS BELOW 12,000 FEET WITH NO
SIGNIFICANT WEATHER AND/OR OBSTRUCTIONS TO VISISBILITY.

NORTHEAST MONTANA


CITY           SKY/WX    TMP DP  RH WIND       PRES   REMARKS
GLASGOW        MOCLDY    77  44  30 NW3       30.05S
PLENTYWOOD       N/A     71  40  32 N8G16       N/A
WOLF POINT     PTCLDY    79  44  28 SW5       30.04R
JORDAN           N/A     78  39  24 NE9       30.06R
WINNETT          N/A     74  38  27 S3G12       N/A
SIDNEY         PTCLDY    78  45  30 N8        30.03R
GLENDIVE       CLOUDY    77  44  30 N8        30.06R
MALTA            N/A     77  44  30 SE3         N/A

FORT PECK REPORTS


CITY           SKY/WX    TMP DP  RH WIND       PRES   REMARKS
FORT PECK        N/A     75  53  46 S3          N/A
THE PINES        N/A     76  45  33 NE2         N/A

SOUTHEAST MONTANA


CITY           SKY/WX    TMP DP  RH WIND       PRES   REMARKS
BILLINGS       PTCLDY    71  44  37 N5        30.09R
MILES CITY     MOCLDY    79  39  23 NE6       30.05R
BAKER          CLOUDY    76  41  28 NE3       30.08R
LIVINGSTON     CLEAR     61  44  53 S3        30.12S

CENTRAL MONTANA


CITY           SKY/WX    TMP DP  RH WIND       PRES   REMARKS
HAVRE          CLEAR     77  39  25 NE7       30.04R
LEWISTOWN      CLEAR     72  40  31 E12       30.10R
GREAT FALLS    CLEAR     76  38  25 NE14      30.04R
CUT BANK       CLEAR     73  36  25 E7        30.09R
HELENA         CLEAR     80  49  33 CALM      30.00S
BUTTE          CLOUDY    76  47  35 S3        30.12R
BOZEMAN        CLEAR     72  48  42 SE12      30.06S

WESTERN MONTANA


CITY           SKY/WX    TMP DP  RH WIND       PRES   REMARKS
MISSOULA       CLEAR     79  33  19 N7        29.98R
KALISPELL      NOT AVBL

NORTH DAKOTA


CITY           SKY/WX    TMP DP  RH WIND       PRES   REMARKS
WILLISTON      CLEAR     76  43  30 N9        30.03S
DICKINSON      CLOUDY    76  47  35 N6        30.03S
MINOT          CLEAR     69  54  58 NW7       30.00R
BISMARCK       CLOUDY    78  53  41 N5        29.99R

SOUTHERN SASKATCHEWAN


CITY           SKY/WX    TMP DP  RH WIND       PRES   REMARKS
REGINA         PTCLDY    66  52  59 NW6       30.04R
ESTEVAN        PTCLDY    64  55  72 NW3       30.03R
SWIFT CURRENT  CLEAR     68  46  45 NE3       30.08S




USA.gov is the U.S. government's official web portal to all federal, state and local government web resources and services.